This is the latest recevied weather packets stored in our database for station/object EA5JUX. If no packets are shown the sender has not sent any weather packets the latest 10 day(s).
| Time | Temp. | Humidity | Pressure | Rain* | Wind** | Luminosity | Snow |
|---|---|---|---|---|---|---|---|
| 1788106034 | 28.33° C | 69% | 1014.3 hPa | 0 mm | - | - | - |
| 1788105755 | 28.33° C | 68% | 1014.4 hPa | 0 mm | - | - | - |
| 1788105435 | 28.33° C | 68% | 1014.4 hPa | 0 mm | - | - | - |
| 1788105135 | 28.33° C | 67% | 1014.6 hPa | 0 mm | - | - | - |
| 1788104835 | 28.89° C | 65% | 1014.6 hPa | 0 mm | - | - | - |
| 1788104546 | 29.44° C | 64% | 1014.7 hPa | 0 mm | - | - | - |
| 1788104234 | 29.44° C | 61% | 1014.6 hPa | 0 mm | - | - | - |
| 1788103934 | 28.89° C | 58% | 1014.6 hPa | 0 mm | - | - | - |
| 1788103652 | 30° C | 58% | 1014.8 hPa | 0 mm | - | - | - |
| 1788103334 | 29.44° C | 57% | 1014.6 hPa | 0 mm | - | - | - |
| 1788103034 | 28.89° C | 56% | 1014.7 hPa | 0 mm | - | - | - |
| 1788102734 | 29.44° C | 56% | 1014.7 hPa | 0 mm | - | - | - |
| 1788102435 | 28.89° C | 53% | 1014.9 hPa | 0 mm | - | - | - |
| 1788102151 | 28.89° C | 59% | 1014.8 hPa | 0 mm | - | - | - |
| 1788101834 | 29.44° C | 57% | 1014.9 hPa | 0 mm | - | - | - |
| 1788101546 | 28.89° C | 53% | 1014.8 hPa | 0 mm | - | - | - |
| 1788101234 | 29.44° C | 54% | 1014.9 hPa | 0 mm | - | - | - |
| 1788100935 | 28.89° C | 59% | 1014.9 hPa | 0 mm | - | - | - |
| 1788100635 | 30° C | 58% | 1015 hPa | 0 mm | - | - | - |
| 1788100335 | 28.89° C | 57% | 1015.2 hPa | 0 mm | - | - | - |
| 1788100034 | 30° C | 55% | 1015.1 hPa | 0 mm | - | - | - |
| 1788099734 | 30° C | 55% | 1015.3 hPa | 0 mm | - | - | - |
| 1788099435 | 28.89° C | 59% | 1015 hPa | 0 mm | - | - | - |
| 1788099143 | 28.89° C | 57% | 1015.2 hPa | 0 mm | - | - | - |
| 1788098834 | 29.44° C | 57% | 1015.2 hPa | 0 mm | - | - | - |
* Rain latest hour (hover to see other rain measurements)
** Current wind speed in m/s (hover to see current wind gust speed)